Year,Month,Day,Hour,Minute,Value (Times are PST for temperature in C)
2019,05,05,00,00,8.90
2019,05,05,00,01,8.90
2019,05,05,00,02,8.90
2019,05,05,00,03,8.90
2019,05,05,00,04,8.90
2019,05,05,00,05,8.90
2019,05,05,00,06,9.00
2019,05,05,00,07,9.00
2019,05,05,00,08,8.90
2019,05,05,00,09,8.90
2019,05,05,00,10,8.90
2019,05,05,00,11,8.80
2019,05,05,00,12,8.80
2019,05,05,00,13,8.70
2019,05,05,00,14,8.70
2019,05,05,00,15,8.60
2019,05,05,00,16,8.60
2019,05,05,00,17,8.60
2019,05,05,00,18,8.60
2019,05,05,00,19,8.60
2019,05,05,00,20,8.60
2019,05,05,00,21,8.60
2019,05,05,00,22,8.70
2019,05,05,00,23,8.70
2019,05,05,00,24,8.70
2019,05,05,00,25,8.70
2019,05,05,00,26,8.70
2019,05,05,00,27,8.60
2019,05,05,00,28,8.60
2019,05,05,00,29,8.60
2019,05,05,00,30,8.60
2019,05,05,00,31,8.60
2019,05,05,00,32,8.60
2019,05,05,00,33,8.60
2019,05,05,00,34,8.60
2019,05,05,00,35,8.60
2019,05,05,00,36,8.60
2019,05,05,00,37,8.60
2019,05,05,00,38,8.60
2019,05,05,00,39,8.60
2019,05,05,00,40,8.60
2019,05,05,00,41,8.60
2019,05,05,00,42,8.60
2019,05,05,00,43,8.60
2019,05,05,00,44,8.60
2019,05,05,00,45,8.50
2019,05,05,00,46,8.50
2019,05,05,00,47,8.50
2019,05,05,00,48,8.50
2019,05,05,00,49,8.40
2019,05,05,00,50,8.40
2019,05,05,00,51,8.40
2019,05,05,00,52,8.40
2019,05,05,00,53,8.40
2019,05,05,00,54,8.40
2019,05,05,00,55,8.40
2019,05,05,00,56,8.40
2019,05,05,00,57,8.30
2019,05,05,00,58,8.30
2019,05,05,00,59,8.30
2019,05,05,01,00,8.30
2019,05,05,01,01,8.30
2019,05,05,01,02,8.30
2019,05,05,01,03,8.30
2019,05,05,01,04,8.30
2019,05,05,01,05,8.30
2019,05,05,01,06,8.30
2019,05,05,01,07,8.30
2019,05,05,01,08,8.30
2019,05,05,01,09,8.30
2019,05,05,01,10,8.30
2019,05,05,01,11,8.30
2019,05,05,01,12,8.30
2019,05,05,01,13,8.30
2019,05,05,01,14,8.30
2019,05,05,01,15,8.30
2019,05,05,01,16,8.30
2019,05,05,01,17,8.30
2019,05,05,01,18,8.30
2019,05,05,01,19,8.30
2019,05,05,01,20,8.30
2019,05,05,01,21,8.30
2019,05,05,01,22,8.30
2019,05,05,01,23,8.30
2019,05,05,01,24,8.30
2019,05,05,01,25,8.30
2019,05,05,01,26,8.30
2019,05,05,01,27,8.30
2019,05,05,01,28,8.30
2019,05,05,01,29,8.30
2019,05,05,01,30,8.30
2019,05,05,01,31,8.20
2019,05,05,01,32,8.30
2019,05,05,01,33,8.30
2019,05,05,01,34,8.30
2019,05,05,01,35,8.30
2019,05,05,01,36,8.40
2019,05,05,01,37,8.40
2019,05,05,01,38,8.40
2019,05,05,01,39,8.40
2019,05,05,01,40,8.40
2019,05,05,01,41,8.40
2019,05,05,01,42,8.40
2019,05,05,01,43,8.40
2019,05,05,01,44,8.30
2019,05,05,01,45,8.30
2019,05,05,01,46,8.30
2019,05,05,01,47,8.30
2019,05,05,01,48,8.30
2019,05,05,01,49,8.30
2019,05,05,01,50,8.30
2019,05,05,01,51,8.30
2019,05,05,01,52,8.30
2019,05,05,01,53,8.30
2019,05,05,01,54,8.30
2019,05,05,01,55,8.30
2019,05,05,01,56,8.30
2019,05,05,01,57,8.30
2019,05,05,01,58,8.30
2019,05,05,01,59,8.30
2019,05,05,02,00,8.30
2019,05,05,02,01,8.30
2019,05,05,02,02,8.30
2019,05,05,02,03,8.30
2019,05,05,02,04,8.30
2019,05,05,02,05,8.30
2019,05,05,02,06,8.30
2019,05,05,02,07,8.40
2019,05,05,02,08,8.40
2019,05,05,02,09,8.40
2019,05,05,02,10,8.40
2019,05,05,02,11,8.50
2019,05,05,02,12,8.50
2019,05,05,02,13,8.60
2019,05,05,02,14,8.60
2019,05,05,02,15,8.60
2019,05,05,02,16,8.50
2019,05,05,02,17,8.50
2019,05,05,02,18,8.50
2019,05,05,02,19,8.50
2019,05,05,02,20,8.40
2019,05,05,02,21,8.40
2019,05,05,02,22,8.40
2019,05,05,02,23,8.40
2019,05,05,02,24,8.40
2019,05,05,02,25,8.40
2019,05,05,02,26,8.40
2019,05,05,02,27,8.40
2019,05,05,02,28,8.50
2019,05,05,02,29,8.50
2019,05,05,02,30,8.50
2019,05,05,02,31,8.50
2019,05,05,02,32,8.40
2019,05,05,02,33,8.40
2019,05,05,02,34,8.40
2019,05,05,02,35,8.40
2019,05,05,02,36,8.30
2019,05,05,02,37,8.30
2019,05,05,02,38,8.30
2019,05,05,02,39,8.30
2019,05,05,02,40,8.30
2019,05,05,02,41,8.30
2019,05,05,02,42,8.30
2019,05,05,02,43,8.30
2019,05,05,02,44,8.30
2019,05,05,02,45,8.20
2019,05,05,02,46,8.20
2019,05,05,02,47,8.20
2019,05,05,02,48,8.20
2019,05,05,02,49,8.20
2019,05,05,02,50,8.20
2019,05,05,02,51,8.10
2019,05,05,02,52,8.10
2019,05,05,02,53,8.10
2019,05,05,02,54,8.10
2019,05,05,02,55,8.10
2019,05,05,02,56,8.10
2019,05,05,02,57,8.20
2019,05,05,02,58,8.10
2019,05,05,02,59,8.10
2019,05,05,03,00,8.10
2019,05,05,03,01,8.20
2019,05,05,03,02,8.10
2019,05,05,03,03,8.20
2019,05,05,03,04,8.20
2019,05,05,03,05,8.20
2019,05,05,03,06,8.20
2019,05,05,03,07,8.20
2019,05,05,03,08,8.20
2019,05,05,03,09,8.20
2019,05,05,03,10,8.20
2019,05,05,03,11,8.20
2019,05,05,03,12,8.20
2019,05,05,03,13,8.20
2019,05,05,03,14,8.20
2019,05,05,03,15,8.20
2019,05,05,03,16,8.20
2019,05,05,03,17,8.20
2019,05,05,03,18,8.20
2019,05,05,03,19,8.20
2019,05,05,03,20,8.20
2019,05,05,03,21,8.20
2019,05,05,03,22,8.10
2019,05,05,03,23,8.20
2019,05,05,03,24,8.20
2019,05,05,03,25,8.20
2019,05,05,03,26,8.20
2019,05,05,03,27,8.30
2019,05,05,03,28,8.30
2019,05,05,03,29,8.30
2019,05,05,03,30,8.20
2019,05,05,03,31,8.20
2019,05,05,03,32,8.20
2019,05,05,03,33,8.20
2019,05,05,03,34,8.10
2019,05,05,03,35,8.10
2019,05,05,03,36,8.10
2019,05,05,03,37,8.10
2019,05,05,03,38,8.10
2019,05,05,03,39,8.10
2019,05,05,03,40,8.10
2019,05,05,03,41,8.20
2019,05,05,03,42,8.20
2019,05,05,03,43,8.20
2019,05,05,03,44,8.20
2019,05,05,03,45,8.10
2019,05,05,03,46,8.10
2019,05,05,03,47,8.10
2019,05,05,03,48,8.10
2019,05,05,03,49,8.10
2019,05,05,03,50,8.00
2019,05,05,03,51,8.00
2019,05,05,03,52,7.90
2019,05,05,03,53,7.90
2019,05,05,03,54,7.90
2019,05,05,03,55,7.90
2019,05,05,03,56,7.90
2019,05,05,03,57,7.80
2019,05,05,03,58,7.80
2019,05,05,03,59,7.80
2019,05,05,04,00,7.80
2019,05,05,04,01,7.80
2019,05,05,04,02,7.80
2019,05,05,04,03,7.80
2019,05,05,04,04,7.70
2019,05,05,04,05,7.70
2019,05,05,04,06,7.70
2019,05,05,04,07,7.70
2019,05,05,04,08,7.70
2019,05,05,04,09,7.70
2019,05,05,04,10,7.70
2019,05,05,04,11,7.70
2019,05,05,04,12,7.70
2019,05,05,04,13,7.70
2019,05,05,04,14,7.70
2019,05,05,04,15,7.70
2019,05,05,04,16,7.70
2019,05,05,04,17,7.70
2019,05,05,04,18,7.70
2019,05,05,04,19,7.70
2019,05,05,04,20,7.70
2019,05,05,04,21,7.60
2019,05,05,04,22,7.60
2019,05,05,04,23,7.50
2019,05,05,04,24,7.50
2019,05,05,04,25,7.50
2019,05,05,04,26,7.50
2019,05,05,04,27,7.50
2019,05,05,04,28,7.40
2019,05,05,04,29,7.40
2019,05,05,04,30,7.40
2019,05,05,04,31,7.40
2019,05,05,04,32,7.40
2019,05,05,04,33,7.40
2019,05,05,04,34,7.40
2019,05,05,04,35,7.40
2019,05,05,04,36,7.40
2019,05,05,04,37,7.40
2019,05,05,04,38,7.50
2019,05,05,04,39,7.50
2019,05,05,04,40,7.50
2019,05,05,04,41,7.60
2019,05,05,04,42,7.60
2019,05,05,04,43,7.60
2019,05,05,04,44,7.60
2019,05,05,04,45,7.70
2019,05,05,04,46,7.70
2019,05,05,04,47,7.70
2019,05,05,04,48,7.70
2019,05,05,04,49,7.70
2019,05,05,04,50,7.70
2019,05,05,04,51,7.70
2019,05,05,04,52,7.70
2019,05,05,04,53,7.70
2019,05,05,04,54,7.70
2019,05,05,04,55,7.70
2019,05,05,04,56,7.70
2019,05,05,04,57,7.60
2019,05,05,04,58,7.60
2019,05,05,04,59,7.60
2019,05,05,05,00,7.60
2019,05,05,05,01,7.60
2019,05,05,05,02,7.60
2019,05,05,05,03,7.60
2019,05,05,05,04,7.70
2019,05,05,05,05,7.70
2019,05,05,05,06,7.70
2019,05,05,05,07,7.80
2019,05,05,05,08,7.80
2019,05,05,05,09,7.80
2019,05,05,05,10,7.90
2019,05,05,05,11,7.90
2019,05,05,05,12,7.80
2019,05,05,05,13,7.80
2019,05,05,05,14,7.80
2019,05,05,05,15,7.80
2019,05,05,05,16,7.80
2019,05,05,05,17,7.80
2019,05,05,05,18,7.80
2019,05,05,05,19,7.80
2019,05,05,05,20,7.80
2019,05,05,05,21,7.80
2019,05,05,05,22,7.80
2019,05,05,05,23,7.80
2019,05,05,05,24,7.80
2019,05,05,05,25,7.80
2019,05,05,05,26,7.80
2019,05,05,05,27,7.70
2019,05,05,05,28,7.70
2019,05,05,05,29,7.60
2019,05,05,05,30,7.60
2019,05,05,05,31,7.60
2019,05,05,05,32,7.50
2019,05,05,05,33,7.50
2019,05,05,05,34,7.40
2019,05,05,05,35,7.40
2019,05,05,05,36,7.40
2019,05,05,05,37,7.40
2019,05,05,05,38,7.40
2019,05,05,05,39,7.40
2019,05,05,05,40,7.30
2019,05,05,05,41,7.30
2019,05,05,05,42,7.30
2019,05,05,05,43,7.40
2019,05,05,05,44,7.40
2019,05,05,05,45,7.50
2019,05,05,05,46,7.50
2019,05,05,05,47,7.50
2019,05,05,05,48,7.50
2019,05,05,05,49,7.50
2019,05,05,05,50,7.50
2019,05,05,05,51,7.60
2019,05,05,05,52,7.60
2019,05,05,05,53,7.60
2019,05,05,05,54,7.60
2019,05,05,05,55,7.60
2019,05,05,05,56,7.70
2019,05,05,05,57,7.80
2019,05,05,05,58,7.80
2019,05,05,05,59,7.80
2019,05,05,06,00,7.90
2019,05,05,06,01,7.90
2019,05,05,06,02,7.90
2019,05,05,06,03,7.90
2019,05,05,06,04,7.90
2019,05,05,06,05,7.80
2019,05,05,06,06,7.80
2019,05,05,06,07,7.70
2019,05,05,06,08,7.70
2019,05,05,06,09,7.70
2019,05,05,06,10,7.70
2019,05,05,06,11,7.70
2019,05,05,06,12,7.70
2019,05,05,06,13,7.70
2019,05,05,06,14,7.70
2019,05,05,06,15,7.80
2019,05,05,06,16,7.80
2019,05,05,06,17,7.90
2019,05,05,06,18,8.00
2019,05,05,06,19,8.10
2019,05,05,06,20,8.20
2019,05,05,06,21,8.20
2019,05,05,06,22,8.30
2019,05,05,06,23,8.30
2019,05,05,06,24,8.30
2019,05,05,06,25,8.30
2019,05,05,06,26,8.30
2019,05,05,06,27,8.30
2019,05,05,06,28,8.30
2019,05,05,06,29,8.30
2019,05,05,06,30,8.40
2019,05,05,06,31,8.40
2019,05,05,06,32,8.40
2019,05,05,06,33,8.30
2019,05,05,06,34,8.30
2019,05,05,06,35,8.30
2019,05,05,06,36,8.30
2019,05,05,06,37,8.30
2019,05,05,06,38,8.30
2019,05,05,06,39,8.40
2019,05,05,06,40,8.40
2019,05,05,06,41,8.40
2019,05,05,06,42,8.40
2019,05,05,06,43,8.40
2019,05,05,06,44,8.40
2019,05,05,06,45,8.40
2019,05,05,06,46,8.50
2019,05,05,06,47,8.40
2019,05,05,06,48,8.40
2019,05,05,06,49,8.40
2019,05,05,06,50,8.40
2019,05,05,06,51,8.30
2019,05,05,06,52,8.30
2019,05,05,06,53,8.30
2019,05,05,06,54,8.40
2019,05,05,06,55,8.50
2019,05,05,06,56,8.60
2019,05,05,06,57,8.70
2019,05,05,06,58,8.70
2019,05,05,06,59,8.80
2019,05,05,07,00,8.80
2019,05,05,07,01,8.90
2019,05,05,07,02,8.90
2019,05,05,07,03,8.90
2019,05,05,07,04,8.90
2019,05,05,07,05,8.90
2019,05,05,07,06,8.90
2019,05,05,07,07,8.80
2019,05,05,07,08,8.80
2019,05,05,07,09,8.80
2019,05,05,07,10,8.90
2019,05,05,07,11,8.90
2019,05,05,07,12,8.90
2019,05,05,07,13,8.90
2019,05,05,07,14,9.00
2019,05,05,07,15,9.00
2019,05,05,07,16,9.00
2019,05,05,07,17,9.00
2019,05,05,07,18,9.00
2019,05,05,07,19,9.10
2019,05,05,07,20,9.10
2019,05,05,07,21,9.10
2019,05,05,07,22,9.20
2019,05,05,07,23,9.20
2019,05,05,07,24,9.30
2019,05,05,07,25,9.40
2019,05,05,07,26,9.40
2019,05,05,07,27,9.50
2019,05,05,07,28,9.50
2019,05,05,07,29,9.60
2019,05,05,07,30,9.70
2019,05,05,07,31,9.70
2019,05,05,07,32,9.80
2019,05,05,07,33,9.90
2019,05,05,07,34,9.90
2019,05,05,07,35,10.00
2019,05,05,07,36,10.10
2019,05,05,07,37,10.20
2019,05,05,07,38,10.20
2019,05,05,07,39,10.30
2019,05,05,07,40,10.40
2019,05,05,07,41,10.50
2019,05,05,07,42,10.50
2019,05,05,07,43,10.50
2019,05,05,07,44,10.50
2019,05,05,07,45,10.50
2019,05,05,07,46,10.50
2019,05,05,07,47,10.50
2019,05,05,07,48,10.60
2019,05,05,07,49,10.60
2019,05,05,07,50,10.60
2019,05,05,07,51,10.70
2019,05,05,07,52,10.80
2019,05,05,07,53,10.80
2019,05,05,07,54,10.90
2019,05,05,07,55,11.00
2019,05,05,07,56,11.10
2019,05,05,07,57,11.20
2019,05,05,07,58,11.20
2019,05,05,07,59,11.20
2019,05,05,08,00,11.20
2019,05,05,08,01,11.20
2019,05,05,08,02,11.20
2019,05,05,08,03,11.20
2019,05,05,08,04,11.10
2019,05,05,08,05,11.20
2019,05,05,08,06,11.20
2019,05,05,08,07,11.20
2019,05,05,08,08,11.30
2019,05,05,08,09,11.30
2019,05,05,08,10,11.40
2019,05,05,08,11,11.50
2019,05,05,08,12,11.60
2019,05,05,08,13,11.60
2019,05,05,08,14,11.70
2019,05,05,08,15,11.70
2019,05,05,08,16,11.80
2019,05,05,08,17,11.90
2019,05,05,08,18,11.90
2019,05,05,08,19,12.00
2019,05,05,08,20,12.10
2019,05,05,08,21,12.10
2019,05,05,08,22,12.20
2019,05,05,08,23,12.30
2019,05,05,08,24,12.30
2019,05,05,08,25,12.40
2019,05,05,08,26,12.50
2019,05,05,08,27,12.60
2019,05,05,08,28,12.70
2019,05,05,08,29,12.80
2019,05,05,08,30,12.80
2019,05,05,08,31,12.80
2019,05,05,08,32,12.80
2019,05,05,08,33,12.80
2019,05,05,08,34,12.80
2019,05,05,08,35,12.80
2019,05,05,08,36,12.80
2019,05,05,08,37,12.80
2019,05,05,08,38,12.90
2019,05,05,08,39,12.90
2019,05,05,08,40,12.90
2019,05,05,08,41,12.90
2019,05,05,08,42,12.90
2019,05,05,08,43,12.90
2019,05,05,08,44,13.00
2019,05,05,08,45,13.00
2019,05,05,08,46,13.00
2019,05,05,08,47,13.10
2019,05,05,08,48,13.10
2019,05,05,08,49,13.10
2019,05,05,08,50,13.10
2019,05,05,08,51,13.00
2019,05,05,08,52,13.00
2019,05,05,08,53,13.00
2019,05,05,08,54,13.00
2019,05,05,08,55,13.00
2019,05,05,08,56,13.00
2019,05,05,08,57,13.10
2019,05,05,08,58,13.10
2019,05,05,08,59,13.10
2019,05,05,09,00,13.20
2019,05,05,09,01,13.30
2019,05,05,09,02,13.30
2019,05,05,09,03,13.30
2019,05,05,09,04,13.40
2019,05,05,09,05,13.40
2019,05,05,09,06,13.50
2019,05,05,09,07,13.50
2019,05,05,09,08,13.50
2019,05,05,09,09,13.60
2019,05,05,09,10,13.70
2019,05,05,09,11,13.70
2019,05,05,09,12,13.80
2019,05,05,09,13,13.90
2019,05,05,09,14,13.90
2019,05,05,09,15,13.90
2019,05,05,09,16,13.90
2019,05,05,09,17,14.00
2019,05,05,09,18,14.10
2019,05,05,09,19,14.10
2019,05,05,09,20,14.20
2019,05,05,09,21,14.20
2019,05,05,09,22,14.20
2019,05,05,09,23,14.20
2019,05,05,09,24,14.30
2019,05,05,09,25,14.40
2019,05,05,09,26,14.50
2019,05,05,09,27,14.60
2019,05,05,09,28,14.70
2019,05,05,09,29,14.90
2019,05,05,09,30,14.90
2019,05,05,09,31,14.90
2019,05,05,09,32,14.90
2019,05,05,09,33,14.80
2019,05,05,09,34,14.80
2019,05,05,09,35,14.80
2019,05,05,09,36,14.90
2019,05,05,09,37,15.00
2019,05,05,09,38,15.10
2019,05,05,09,39,15.10
2019,05,05,09,40,15.10
2019,05,05,09,41,15.00
2019,05,05,09,42,14.90
2019,05,05,09,43,14.90
2019,05,05,09,44,14.90
2019,05,05,09,45,14.90
2019,05,05,09,46,14.90
2019,05,05,09,47,14.90
2019,05,05,09,48,14.90
2019,05,05,09,49,14.80
2019,05,05,09,50,14.60
2019,05,05,09,51,14.50
2019,05,05,09,52,14.50
2019,05,05,09,53,14.40
2019,05,05,09,54,14.40
2019,05,05,09,55,14.30
2019,05,05,09,56,14.30
2019,05,05,09,57,14.30
2019,05,05,09,58,14.40
2019,05,05,09,59,14.50
2019,05,05,10,00,14.60
2019,05,05,10,01,14.70
2019,05,05,10,02,14.70
2019,05,05,10,03,14.70
2019,05,05,10,04,14.60
2019,05,05,10,05,14.60
2019,05,05,10,06,14.60
2019,05,05,10,07,14.60
2019,05,05,10,08,14.60
2019,05,05,10,09,14.60
2019,05,05,10,10,14.60
2019,05,05,10,11,14.70
2019,05,05,10,12,14.80
2019,05,05,10,13,14.90
2019,05,05,10,14,14.90
2019,05,05,10,15,14.90
2019,05,05,10,16,14.90
2019,05,05,10,17,15.00
2019,05,05,10,18,15.10
2019,05,05,10,19,15.20
2019,05,05,10,20,15.40
2019,05,05,10,21,15.30
2019,05,05,10,22,15.30
2019,05,05,10,23,15.30
2019,05,05,10,24,15.30
2019,05,05,10,25,15.30
2019,05,05,10,26,15.30
2019,05,05,10,27,15.30
2019,05,05,10,28,15.40
2019,05,05,10,29,15.50
2019,05,05,10,30,15.50
2019,05,05,10,31,15.40
2019,05,05,10,32,15.50
2019,05,05,10,33,15.50
2019,05,05,10,34,15.60
2019,05,05,10,35,15.70
2019,05,05,10,36,15.60
2019,05,05,10,37,15.60
2019,05,05,10,38,15.60
2019,05,05,10,39,15.60
2019,05,05,10,40,15.50
2019,05,05,10,41,15.50
2019,05,05,10,42,15.40
2019,05,05,10,43,15.30
2019,05,05,10,44,15.30
2019,05,05,10,45,15.30
2019,05,05,10,46,15.40
2019,05,05,10,47,15.40
2019,05,05,10,48,15.30
2019,05,05,10,49,15.30
2019,05,05,10,50,15.20
2019,05,05,10,51,15.10
2019,05,05,10,52,15.10
2019,05,05,10,53,15.10
2019,05,05,10,54,15.10
2019,05,05,10,55,15.10
2019,05,05,10,56,15.10
2019,05,05,10,57,15.20
2019,05,05,10,58,15.20
2019,05,05,10,59,15.30
2019,05,05,11,00,15.40
2019,05,05,11,01,15.50
2019,05,05,11,02,15.50
2019,05,05,11,03,15.40
2019,05,05,11,04,15.40
2019,05,05,11,05,15.40
2019,05,05,11,06,15.30
2019,05,05,11,07,15.20
2019,05,05,11,08,15.10
2019,05,05,11,09,15.10
2019,05,05,11,10,15.30
2019,05,05,11,11,15.30
2019,05,05,11,12,15.40
2019,05,05,11,13,15.40
2019,05,05,11,14,15.40
2019,05,05,11,15,15.40
2019,05,05,11,16,15.40
2019,05,05,11,17,15.50
2019,05,05,11,18,15.50
2019,05,05,11,19,15.60
2019,05,05,11,20,15.80
2019,05,05,11,21,15.80
2019,05,05,11,22,15.80
2019,05,05,11,23,15.70
2019,05,05,11,24,15.60
2019,05,05,11,25,15.50
2019,05,05,11,26,15.50
2019,05,05,11,27,15.50
2019,05,05,11,28,15.50
2019,05,05,11,29,15.50
2019,05,05,11,30,15.70
2019,05,05,11,31,15.80
2019,05,05,11,32,16.00
2019,05,05,11,33,16.10
2019,05,05,11,34,16.20
2019,05,05,11,35,16.20
2019,05,05,11,36,16.20
2019,05,05,11,37,16.30
2019,05,05,11,38,16.30
2019,05,05,11,39,16.50
2019,05,05,11,40,16.60
2019,05,05,11,41,16.60
2019,05,05,11,42,16.60
2019,05,05,11,43,16.70
2019,05,05,11,44,16.70
2019,05,05,11,45,16.70
2019,05,05,11,46,16.70
2019,05,05,11,47,16.70
2019,05,05,11,48,16.80
2019,05,05,11,49,16.80
2019,05,05,11,50,16.80
2019,05,05,11,51,16.90
2019,05,05,11,52,17.00
2019,05,05,11,53,16.80
2019,05,05,11,54,16.70
2019,05,05,11,55,16.50
2019,05,05,11,56,16.30
2019,05,05,11,57,16.20
2019,05,05,11,58,16.20
2019,05,05,11,59,16.20
2019,05,05,12,00,16.20
2019,05,05,12,01,16.20
2019,05,05,12,02,16.20
2019,05,05,12,03,16.10
2019,05,05,12,04,16.00
2019,05,05,12,05,15.90
2019,05,05,12,06,15.90
2019,05,05,12,07,16.10
2019,05,05,12,08,16.30
2019,05,05,12,09,16.50
2019,05,05,12,10,16.60
2019,05,05,12,11,16.80
2019,05,05,12,12,16.90
2019,05,05,12,13,17.00
2019,05,05,12,14,17.10
2019,05,05,12,15,17.00
2019,05,05,12,16,16.90
2019,05,05,12,17,16.80
2019,05,05,12,18,16.80
2019,05,05,12,19,16.70
2019,05,05,12,20,16.80
2019,05,05,12,21,16.80
2019,05,05,12,22,16.80
2019,05,05,12,23,16.80
2019,05,05,12,24,16.90
2019,05,05,12,25,17.00
2019,05,05,12,26,17.10
2019,05,05,12,27,17.10
2019,05,05,12,28,17.20
2019,05,05,12,29,17.20
2019,05,05,12,30,17.30
2019,05,05,12,31,17.20
2019,05,05,12,32,17.00
2019,05,05,12,33,16.90
2019,05,05,12,34,16.70
2019,05,05,12,35,16.70
2019,05,05,12,36,16.70
2019,05,05,12,37,16.80
2019,05,05,12,38,16.90
2019,05,05,12,39,16.90
2019,05,05,12,40,16.90
2019,05,05,12,41,16.90
2019,05,05,12,42,16.80
2019,05,05,12,43,16.80
2019,05,05,12,44,16.90
2019,05,05,12,45,16.90
2019,05,05,12,46,16.80
2019,05,05,12,47,16.80
2019,05,05,12,48,16.70
2019,05,05,12,49,16.80
2019,05,05,12,50,16.90
2019,05,05,12,51,16.90
2019,05,05,12,52,16.80
2019,05,05,12,53,16.90
2019,05,05,12,54,17.00
2019,05,05,12,55,17.10
2019,05,05,12,56,17.20
2019,05,05,12,57,17.30
2019,05,05,12,58,17.30
2019,05,05,12,59,17.30
2019,05,05,13,00,17.30
2019,05,05,13,01,17.30
2019,05,05,13,02,17.40
2019,05,05,13,03,17.40
2019,05,05,13,04,17.40
2019,05,05,13,05,17.40
2019,05,05,13,06,17.40
2019,05,05,13,07,17.40
2019,05,05,13,08,17.30
2019,05,05,13,09,17.20
2019,05,05,13,10,17.20
2019,05,05,13,11,17.20
2019,05,05,13,12,17.10
2019,05,05,13,13,17.10
2019,05,05,13,14,17.20
2019,05,05,13,15,17.20
2019,05,05,13,16,17.30
2019,05,05,13,17,17.40
2019,05,05,13,18,17.40
2019,05,05,13,19,17.40
2019,05,05,13,20,17.40
2019,05,05,13,21,17.30
2019,05,05,13,22,17.20
2019,05,05,13,23,17.20
2019,05,05,13,24,17.10
2019,05,05,13,25,17.00
2019,05,05,13,26,17.00
2019,05,05,13,27,16.90
2019,05,05,13,28,16.80
2019,05,05,13,29,16.90
2019,05,05,13,30,16.90
2019,05,05,13,31,17.00
2019,05,05,13,32,17.00
2019,05,05,13,33,17.00
2019,05,05,13,34,17.00
2019,05,05,13,35,17.10
2019,05,05,13,36,17.10
2019,05,05,13,37,17.10
2019,05,05,13,38,17.20
2019,05,05,13,39,17.40
2019,05,05,13,40,17.40
2019,05,05,13,41,17.40
2019,05,05,13,42,17.40
2019,05,05,13,43,17.40
2019,05,05,13,44,17.30
2019,05,05,13,45,17.40
2019,05,05,13,46,17.60
2019,05,05,13,47,17.70
2019,05,05,13,48,17.80
2019,05,05,13,49,17.80
2019,05,05,13,50,17.70
2019,05,05,13,51,17.70
2019,05,05,13,52,17.60
2019,05,05,13,53,17.40
2019,05,05,13,54,17.30
2019,05,05,13,55,17.20
2019,05,05,13,56,17.20
2019,05,05,13,57,17.20
2019,05,05,13,58,17.10
2019,05,05,13,59,17.20
2019,05,05,14,00,17.20
2019,05,05,14,01,17.40
2019,05,05,14,02,17.60
2019,05,05,14,03,17.80
2019,05,05,14,04,17.90
2019,05,05,14,05,17.80
2019,05,05,14,06,17.80
2019,05,05,14,07,17.70
2019,05,05,14,08,17.80
2019,05,05,14,09,18.00
2019,05,05,14,10,18.10
2019,05,05,14,11,18.10
2019,05,05,14,12,18.20
2019,05,05,14,13,18.20
2019,05,05,14,14,18.20
2019,05,05,14,15,18.10
2019,05,05,14,16,18.00
2019,05,05,14,17,18.00
2019,05,05,14,18,17.90
2019,05,05,14,19,17.80
2019,05,05,14,20,17.90
2019,05,05,14,21,17.90
2019,05,05,14,22,18.00
2019,05,05,14,23,18.00
2019,05,05,14,24,18.00
2019,05,05,14,25,18.10
2019,05,05,14,26,18.10
2019,05,05,14,27,18.10
2019,05,05,14,28,18.10
2019,05,05,14,29,18.00
2019,05,05,14,30,18.00
2019,05,05,14,31,17.90
2019,05,05,14,32,17.90
2019,05,05,14,33,18.00
2019,05,05,14,34,18.00
2019,05,05,14,35,18.10
2019,05,05,14,36,18.00
2019,05,05,14,37,18.00
2019,05,05,14,38,18.00
2019,05,05,14,39,18.00
2019,05,05,14,40,17.90
2019,05,05,14,41,17.90
2019,05,05,14,42,17.90
2019,05,05,14,43,17.90
2019,05,05,14,44,17.80
2019,05,05,14,45,17.80
2019,05,05,14,46,17.90
2019,05,05,14,47,18.00
2019,05,05,14,48,18.10
2019,05,05,14,49,18.20
2019,05,05,14,50,18.30
2019,05,05,14,51,18.30
2019,05,05,14,52,18.30
2019,05,05,14,53,18.30
2019,05,05,14,54,18.20
2019,05,05,14,55,18.20
2019,05,05,14,56,18.10
2019,05,05,14,57,18.10
2019,05,05,14,58,18.10
2019,05,05,14,59,18.10
2019,05,05,15,00,18.10
2019,05,05,15,01,18.20
2019,05,05,15,02,18.20
2019,05,05,15,03,18.10
2019,05,05,15,04,18.00
2019,05,05,15,05,18.00
2019,05,05,15,06,17.90
2019,05,05,15,07,17.90
2019,05,05,15,08,17.90
2019,05,05,15,09,18.00
2019,05,05,15,10,18.00
2019,05,05,15,11,18.10
2019,05,05,15,12,18.10
2019,05,05,15,13,18.10
2019,05,05,15,14,18.10
2019,05,05,15,15,18.20
2019,05,05,15,16,18.20
2019,05,05,15,17,18.30
2019,05,05,15,18,18.40
2019,05,05,15,19,18.60
2019,05,05,15,20,18.70
2019,05,05,15,21,18.70
2019,05,05,15,22,18.90
2019,05,05,15,23,19.00
2019,05,05,15,24,19.10
2019,05,05,15,25,19.00
2019,05,05,15,26,18.90
2019,05,05,15,27,18.80
2019,05,05,15,28,18.70
2019,05,05,15,29,18.70
2019,05,05,15,30,18.70
2019,05,05,15,31,18.60
2019,05,05,15,32,18.60
2019,05,05,15,33,18.70
2019,05,05,15,34,18.70
2019,05,05,15,35,18.70
2019,05,05,15,36,18.80
2019,05,05,15,37,19.00
2019,05,05,15,38,19.10
2019,05,05,15,39,19.10
2019,05,05,15,40,19.10
2019,05,05,15,41,19.10
2019,05,05,15,42,19.00
2019,05,05,15,43,19.00
2019,05,05,15,44,18.90
2019,05,05,15,45,18.80
2019,05,05,15,46,18.70
2019,05,05,15,47,18.60
2019,05,05,15,48,18.50
2019,05,05,15,49,18.40
2019,05,05,15,50,18.40
2019,05,05,15,51,18.50
2019,05,05,15,52,18.50
2019,05,05,15,53,18.50
2019,05,05,15,54,18.50
2019,05,05,15,55,18.40
2019,05,05,15,56,18.40
2019,05,05,15,57,18.50
2019,05,05,15,58,18.60
2019,05,05,15,59,18.70
2019,05,05,16,00,18.80
2019,05,05,16,01,18.90
2019,05,05,16,02,18.90
2019,05,05,16,03,18.80
2019,05,05,16,04,18.90
2019,05,05,16,05,18.90
2019,05,05,16,06,19.00
2019,05,05,16,07,19.00
2019,05,05,16,08,19.00
2019,05,05,16,09,18.90
2019,05,05,16,10,19.00
2019,05,05,16,11,19.00
2019,05,05,16,12,19.10
2019,05,05,16,13,19.00
2019,05,05,16,14,18.90
2019,05,05,16,15,18.80
2019,05,05,16,16,18.80
2019,05,05,16,17,18.80
2019,05,05,16,18,18.80
2019,05,05,16,19,18.80
2019,05,05,16,20,18.80
2019,05,05,16,21,18.80
2019,05,05,16,22,18.90
2019,05,05,16,23,18.90
2019,05,05,16,24,19.00
2019,05,05,16,25,19.00
2019,05,05,16,26,19.10
2019,05,05,16,27,19.20
2019,05,05,16,28,19.10
2019,05,05,16,29,19.10
2019,05,05,16,30,19.10
2019,05,05,16,31,19.10
2019,05,05,16,32,19.10
2019,05,05,16,33,19.20
2019,05,05,16,34,19.30
2019,05,05,16,35,19.40
2019,05,05,16,36,19.50
2019,05,05,16,37,19.50
2019,05,05,16,38,19.50
2019,05,05,16,39,19.40
2019,05,05,16,40,19.30
2019,05,05,16,41,19.40
2019,05,05,16,42,19.40
2019,05,05,16,43,19.40
2019,05,05,16,44,19.40
2019,05,05,16,45,19.40
2019,05,05,16,46,19.40
2019,05,05,16,47,19.40
2019,05,05,16,48,19.50
2019,05,05,16,49,19.50
2019,05,05,16,50,19.60
2019,05,05,16,51,19.60
2019,05,05,16,52,19.60
2019,05,05,16,53,19.60
2019,05,05,16,54,19.70
2019,05,05,16,55,19.80
2019,05,05,16,56,19.80
2019,05,05,16,57,19.70
2019,05,05,16,58,19.70
2019,05,05,16,59,19.80
2019,05,05,17,00,19.80
2019,05,05,17,01,19.80
2019,05,05,17,02,19.80
2019,05,05,17,03,19.90
2019,05,05,17,04,19.90
2019,05,05,17,05,19.90
2019,05,05,17,06,19.90
2019,05,05,17,07,19.90
2019,05,05,17,08,19.90
2019,05,05,17,09,19.90
2019,05,05,17,10,19.90
2019,05,05,17,11,19.90
2019,05,05,17,12,20.00
2019,05,05,17,13,20.10
2019,05,05,17,14,20.10
2019,05,05,17,15,20.10
2019,05,05,17,16,20.00
2019,05,05,17,17,20.00
2019,05,05,17,18,20.00
2019,05,05,17,19,20.00
2019,05,05,17,20,20.00
2019,05,05,17,21,20.10
2019,05,05,17,22,20.10
2019,05,05,17,23,20.10
2019,05,05,17,24,20.10
2019,05,05,17,25,20.10
2019,05,05,17,26,20.10
2019,05,05,17,27,20.20
2019,05,05,17,28,20.20
2019,05,05,17,29,20.30
2019,05,05,17,30,20.30
2019,05,05,17,31,20.30
2019,05,05,17,32,20.30
2019,05,05,17,33,20.30
2019,05,05,17,34,20.30
2019,05,05,17,35,20.20
2019,05,05,17,36,20.20
2019,05,05,17,37,20.20
2019,05,05,17,38,20.20
2019,05,05,17,39,20.30